Погода в Плотниково

Россия / Кемеровская область (Кузбасс)     55°01′23″N   85°56′27″E
темп.,
°C
ветер,
м/с
пор.,
м/с
влажн.,
%
обл.,
%
осадки,
мм/ч
давл.,
гПа
погр.,
м
2 декабря, чт
чт201:00−13ю3593100 0.0 102848
04:00−13ю3692100 0.0 102861
07:00−13ююв3491100 0.0 102754
10:00−11ю3885100 0.0 102796
13:00−7ю51282100 0.0 1025225
16:00−5ю41083100 0.0 1024180
19:00−7ююв4108420 0.0 1023116
22:00−7ю514765 0.0 1022184
3 декабря, пт
пт301:00−10ююв39795 0.0 102091
04:00−7ю51578100 0.0 1018220
07:00−6ю5167319 0.0 1015209
10:00−3ююз7206473 0.0 1014364
13:00+1юз71565100 0.0 1012577
16:000ююз61582100 0.0 1011692
19:000ююз61499100 2.4 1010726
22:000юз51399100 4.3 1011781
4 декабря, сб
сб401:000зюз61398100 7.1 1013733
04:00−1зюз714845 0.4 1016623
07:00−2юз71582100 0.4 1019710
10:00−4юз81684100 0.0 1021788
13:00−3зюз81586100 0.1 10221036
16:00−5зюз81489100 0.1 1025962
19:00−6зюз61192100 0.3 1028871
22:00−6зюз51191100 0.1 1030666
5 декабря, вс
вс501:00−10ююз499489 0.1 1032128
04:00−13ююз3796100 0.0 103487
07:00−13ю3796100 0.0 1033101
10:00−11ю4896100 0.0 1032155
13:00−8ю49935 0.0 1030245
16:00−8ю49945 0.0 1028177
19:00−10ю4109530 0.0 1027146
22:00−10ю499524 0.0 1026139
6 декабря, пн
пн601:00−10ю379678 0.0 102596
04:00−9ю499684 0.0 1024148
07:00−10ю499673 0.0 1023132
10:00−9ю4995100 0.0 1022176
13:00−6ю5993100 0.0 1020251
16:00−4ю51091100 0.0 1019359
19:00−4ююз61396100 1.8 1019442
22:00−3ююз61391100 0.9 1017409